When you browse on this site, cookies collect data to enhance your experience and personalize the content and advertising you see.
Visit our Privacy Policy to learn more. By continuing to use the site, you agree to this use of cookies and data.
  • In United Kingdom
  • List of Countries
  • For 7 days
  • Water Temperature
  • Weather Map
  • Weather Widgets
  • user-avatar
    Login

    Hourly Weather Carlisle

    Today, 6 June, Saturday

    Time Temperature Precipitation Wind Pressure Humidity
    00:00 +5°C° 0 mm 8 mps 740 mmHg 95%
    01:00 +6°C° 1 mm 7 mps 739 mmHg 95%
    02:00 +7°C° 1 mm 6 mps 739 mmHg 95%
    03:00 +8°C° 1 mm 5 mps 739 mmHg 95%
    04:00 +8°C° 0.2 mm 5 mps 739 mmHg 94%
    05:00 +8°C° 0.2 mm 5 mps 739 mmHg 92%
    06:00 +9°C° 0 mm 5 mps 739 mmHg 92%
    07:00 +9°C° 0.2 mm 6 mps 740 mmHg 87%
    08:00 +10°C° 0.2 mm 7 mps 740 mmHg 83%
    09:00 +10°C° 0.2 mm 8 mps 741 mmHg 79%
    10:00 +11°C° 0.2 mm 7 mps 742 mmHg 77%
    11:00 +11°C° 0.2 mm 7 mps 743 mmHg 76%
    12:00 +12°C° 0.2 mm 7 mps 743 mmHg 74%
    13:00 +14°C° 0.2 mm 6 mps 744 mmHg 71%
    14:00 +14°C° 0.2 mm 6 mps 745 mmHg 68%
    15:00 +15°C° 0.2 mm 5 mps 745 mmHg 66%
    16:00 +14°C° 0 mm 5 mps 746 mmHg 67%
    17:00 +14°C° 0 mm 4 mps 746 mmHg 69%
    18:00 +14°C° 0 mm 3 mps 747 mmHg 70%
    19:00 +13°C° 0 mm 2 mps 747 mmHg 75%
    20:00 +12°C° 0 mm 1 mps 748 mmHg 80%
    21:00 +10°C° 0 mm 1 mps 748 mmHg 84%
    22:00 +10°C° 0.3 mm 1 mps 749 mmHg 86%
    23:00 +10°C° 0.3 mm 1 mps 749 mmHg 88%

    Tomorrow, 7 June, Sunday

    Time Temperature Precipitation Wind Pressure Humidity
    00:00 +10°C° 0.3 mm 1 mps 749 mmHg 90%
    01:00 +10°C° 0.2 mm 1 mps 749 mmHg 91%
    02:00 +10°C° 0.2 mm 1 mps 750 mmHg 92%
    03:00 +10°C° 0.2 mm 1 mps 750 mmHg 93%
    04:00 +9°C° 0.3 mm 2 mps 750 mmHg 94%
    05:00 +10°C° 0.3 mm 2 mps 751 mmHg 94%
    06:00 +10°C° 0.3 mm 2 mps 751 mmHg 94%
    07:00 +10°C° 0.1 mm 2 mps 752 mmHg 92%
    08:00 +11°C° 0.1 mm 3 mps 753 mmHg 89%
    09:00 +11°C° 0.1 mm 3 mps 753 mmHg 87%
    10:00 +12°C° 0.1 mm 3 mps 754 mmHg 83%
    11:00 +13°C° 0.1 mm 4 mps 755 mmHg 78%
    12:00 +14°C° 0.1 mm 5 mps 755 mmHg 74%
    13:00 +14°C° 0.1 mm 5 mps 756 mmHg 74%
    14:00 +14°C° 0.1 mm 5 mps 756 mmHg 73%
    15:00 +14°C° 0.1 mm 5 mps 757 mmHg 73%
    16:00 +13°C° 0 mm 4 mps 757 mmHg 74%
    17:00 +13°C° 0 mm 4 mps 758 mmHg 75%
    18:00 +12°C° 0 mm 4 mps 758 mmHg 76%
    19:00 +11°C° 0 mm 4 mps 759 mmHg 77%
    20:00 +10°C° 0 mm 4 mps 759 mmHg 77%
    21:00 +7°C° 0 mm 4 mps 760 mmHg 78%
    22:00 +7°C° 0 mm 3 mps 760 mmHg 81%
    23:00 +6°C° 0 mm 2 mps 760 mmHg 84%

    Day after tomorrow, 8 June, Monday

    Time Temperature Precipitation Wind Pressure Humidity
    00:00 +5°C° 0 mm 2 mps 760 mmHg 86%
    01:00 +5°C° 0 mm 2 mps 761 mmHg 87%
    02:00 +5°C° 0 mm 2 mps 761 mmHg 87%
    03:00 +4°C° 0 mm 2 mps 761 mmHg 87%
    04:00 +5°C° 0 mm 2 mps 761 mmHg 84%
    05:00 +6°C° 0 mm 2 mps 762 mmHg 81%
    06:00 +7°C° 0 mm 2 mps 762 mmHg 79%
    07:00 +8°C° 0 mm 2 mps 762 mmHg 73%
    08:00 +9°C° 0 mm 2 mps 762 mmHg 68%
    09:00 +10°C° 0 mm 2 mps 763 mmHg 63%
    10:00 +12°C° 0 mm 2 mps 763 mmHg 62%
    11:00 +13°C° 0 mm 2 mps 763 mmHg 61%
    12:00 +14°C° 0 mm 2 mps 763 mmHg 60%
    13:00 +14°C° 0 mm 2 mps 763 mmHg 60%
    14:00 +14°C° 0 mm 2 mps 763 mmHg 61%
    15:00 +15°C° 0 mm 2 mps 763 mmHg 61%
    16:00 +14°C° 0 mm 2 mps 763 mmHg 66%
    17:00 +14°C° 0 mm 2 mps 763 mmHg 70%
    18:00 +13°C° 0 mm 2 mps 763 mmHg 75%
    19:00 +12°C° 0 mm 2 mps 763 mmHg 79%
    20:00 +11°C° 0 mm 1 mps 763 mmHg 83%
    21:00 +9°C° 0 mm 1 mps 764 mmHg 88%
    22:00 +9°C° 0 mm 1 mps 763 mmHg 88%
    23:00 +8°C° 0 mm 1 mps 763 mmHg 89%

    9 June, Tuesday

    Time Temperature Precipitation Wind Pressure Humidity
    00:00 +8°C° 0 mm 1 mps 763 mmHg 89%
    01:00 +7°C° 0 mm 1 mps 763 mmHg 90%
    02:00 +7°C° 0 mm 1 mps 763 mmHg 91%
    03:00 +6°C° 0 mm 1 mps 763 mmHg 92%
    04:00 +7°C° 0 mm 1 mps 763 mmHg 90%
    05:00 +9°C° 0 mm 1 mps 763 mmHg 89%
    06:00 +10°C° 0 mm 1 mps 763 mmHg 88%
    07:00 +10°C° 0 mm 2 mps 763 mmHg 84%
    08:00 +12°C° 0 mm 2 mps 762 mmHg 79%
    09:00 +14°C° 0 mm 2 mps 762 mmHg 75%
    10:00 +13°C° 0 mm 3 mps 762 mmHg 74%
    11:00 +13°C° 0 mm 3 mps 762 mmHg 73%
    12:00 +14°C° 0 mm 3 mps 762 mmHg 72%
    13:00 +14°C° 0 mm 4 mps 761 mmHg 72%
    14:00 +14°C° 0 mm 4 mps 761 mmHg 71%
    15:00 +14°C° 0 mm 4 mps 761 mmHg 71%
    16:00 +14°C° 0 mm 4 mps 761 mmHg 73%
    17:00 +13°C° 0 mm 4 mps 761 mmHg 76%
    18:00 +13°C° 0 mm 3 mps 761 mmHg 78%
    19:00 +11°C° 0 mm 3 mps 761 mmHg 82%
    20:00 +10°C° 0 mm 2 mps 761 mmHg 86%
    21:00 +9°C° 0 mm 2 mps 761 mmHg 90%
    22:00 +9°C° 0 mm 2 mps 761 mmHg 90%
    23:00 +9°C° 0 mm 2 mps 761 mmHg 89%

    10 June, Wednesday

    Time Temperature Precipitation Wind Pressure Humidity
    00:00 +9°C° 0 mm 2 mps 760 mmHg 89%
    01:00 +9°C° 0 mm 2 mps 760 mmHg 90%
    02:00 +9°C° 0 mm 2 mps 760 mmHg 90%
    03:00 +10°C° 0 mm 2 mps 760 mmHg 91%
    04:00 +10°C° 0.1 mm 2 mps 760 mmHg 92%
    05:00 +10°C° 0.1 mm 2 mps 760 mmHg 93%
    06:00 +10°C° 0.1 mm 2 mps 760 mmHg 94%
    07:00 +12°C° 0.1 mm 2 mps 760 mmHg 93%
    08:00 +11°C° 0.1 mm 3 mps 760 mmHg 91%
    09:00 +12°C° 0.1 mm 3 mps 760 mmHg 90%
    10:00 +13°C° 0.1 mm 3 mps 760 mmHg 86%
    11:00 +14°C° 0.1 mm 4 mps 760 mmHg 81%
    12:00 +15°C° 0.1 mm 4 mps 760 mmHg 77%
    13:00 +15°C° 0.1 mm 4 mps 760 mmHg 75%
    14:00 +15°C° 0.1 mm 4 mps 760 mmHg 73%
    15:00 +15°C° 0.1 mm 5 mps 759 mmHg 71%
    16:00 +15°C° 0.1 mm 4 mps 759 mmHg 72%
    17:00 +14°C° 0.1 mm 4 mps 759 mmHg 74%
    18:00 +14°C° 0.1 mm 4 mps 759 mmHg 76%
    19:00 +12°C° 0.3 mm 4 mps 760 mmHg 81%
    20:00 +11°C° 0.3 mm 4 mps 760 mmHg 86%
    21:00 +10°C° 0.3 mm 4 mps 760 mmHg 91%
    22:00 +10°C° 0.8 mm 4 mps 760 mmHg 92%
    23:00 +8°C° 0.8 mm 4 mps 760 mmHg 94%

    11 June, Thursday

    Time Temperature Precipitation Wind Pressure Humidity
    00:00 +8°C° 0.8 mm 4 mps 760 mmHg 95%
    01:00 +8°C° 0.2 mm 4 mps 760 mmHg 95%
    02:00 +8°C° 0.2 mm 4 mps 760 mmHg 95%
    03:00 +7°C° 0.2 mm 4 mps 760 mmHg 95%
    04:00 +8°C° 0.2 mm 4 mps 760 mmHg 94%
    05:00 +8°C° 0.2 mm 4 mps 760 mmHg 94%
    06:00 +8°C° 0.2 mm 4 mps 760 mmHg 93%
    07:00 +10°C° 0 mm 4 mps 760 mmHg 90%
    08:00 +11°C° 0 mm 4 mps 761 mmHg 87%
    09:00 +12°C° 0 mm 5 mps 761 mmHg 84%
    10:00 +13°C° 0.1 mm 5 mps 761 mmHg 83%
    11:00 +14°C° 0.1 mm 5 mps 761 mmHg 82%
    12:00 +14°C° 0.1 mm 5 mps 761 mmHg 81%
    13:00 +15°C° 0.2 mm 5 mps 761 mmHg 80%
    14:00 +15°C° 0.2 mm 5 mps 761 mmHg 79%
    15:00 +15°C° 0.2 mm 4 mps 761 mmHg 78%
    16:00 +15°C° 0.1 mm 4 mps 761 mmHg 79%
    17:00 +15°C° 0.1 mm 4 mps 761 mmHg 80%
    18:00 +14°C° 0.1 mm 4 mps 761 mmHg 81%
    19:00 +12°C° 0 mm 3 mps 761 mmHg 85%
    20:00 +11°C° 0 mm 3 mps 761 mmHg 89%
    21:00 +9°C° 0 mm 3 mps 761 mmHg 93%
    22:00 +9°C° 0 mm 2 mps 761 mmHg 93%
    23:00 +8°C° 0 mm 2 mps 760 mmHg 94%
    Show more